INTELSAT 33E DEB, 64408

Orbit data source: Space-Track

INTELSAT 33E DEB, 64408 is space debris in GEO originally from a launch on Wed, 24 Aug 2016 UTC launched from the French Guiana (FRGUI). Debris objects in space refer to the collection of defunct objects orbiting the Earth. Examples of debris include non-operational satellites, rocket bodies, and fragments generated from explosions, collisions, or faulty payload assembly.

Loading next visibility...
Identifier
64408, 2016-053AN
Orbit
GEO
Country
Flag of USUS / ITSO
Related business
Manufacturer
Boeing/ES
Mission
Spacecraft
Bus & Motor
Unknown
Mass
Unknown
Launch date (UTC)
2016-08-24 (10 years ago)
Launch vehicle
Unknown
Launch site
French Guiana (FRGUI)
Object type
Payload
Rocket body
Debris
Shape & HBR
Unknown shape, 1.1 m
Radar Cross Section
RCS unknown

Expand to show TLE details & history
Last TLE update: 15 hours ago

TLE from 15 hours ago
0 INTELSAT 33E DEB
1 64408U 16053AN  26121.07458639 -.00000068  00000-0  00000+0 0  9995
2 64408   2.3301  94.3962 1867125 305.3825  38.6286  1.03207719  5594
Epoch: 2026-05-01T01:47Z
TLE epoch observation values (Epoch: 2026-05-01T01:47:24.264Z)
Latitude
-0.00001°
Longitude
-151.27357°
Altitude
29,631.975 km
Speed
3.536 km/s
True Right ascension
06h 18m 21s
True Declination
0° 00' 00"
Sunlit
Object was in daylight at epoch
Visualization orbit readout
Latitude
Unknown
Longitude
Unknown
Altitude
Unknown
Speed
Unknown
Apparent Right ascension
Unknown
Apparent Declination
Unknown
Sunlit
N/A
Visualization observer readout
Local Sidereal Time
00:07:58
Azimuth
Unknown
Elevation
Unknown
Doppler factor
Unknown
Orbital elements
Apogee altitude
42,707.142 km
Perigee altitude
27,261.387 km
Semi-major axis
41,362.402 km
Eccentricity
0.18671
Inclination
2.3301°
RAAN
94.3962°
Arg. of periapsis
305.3825°
True anomaly
54.71244°
Mean anomaly
38.6286°
Eccentric anomaly
46.37208°
Mean motion
0.25801 °/min
Orbital period
1,395.3 mins
BSTAR
0
Loading maneuver chart data...
Computing Atmospheric mass density...
Loading historical data...
Loading historical data...
Loading historical data...
Loading historical data...
Loading historical data...
Loading historical data...
Loading historical data...

Documentation

Showing up to 5 results
|